Regional Weather Roundup
Issued by NWS

Home | Current Version | Previous Version | Graphics & Text | Print | Product List | Glossary On
Versions: 1 2 3 4 5 6 7 8 9 10 11 12 13 14 15 16 17 18 19 20 21 22 23 24 25 26 27 28 29 30 31 32 33 34 35 36 37 38 39 40 41 42 43 44 45 46 47 48 49 50
000
ASUS44 KMEG 311810
RWRTN
TENNESSEE HOURLY STATE WEATHER ROUNDUP
NATIONAL WEATHER SERVICE MEMPHIS TN
100 PM CDT TUE MAY 31 2016

TNZ002-004-019-021-049-052-054-088>092-311900-
WEST TENNESSEE

CITY           SKY/WX    TMP DP  RH WIND       PRES   REMARKS
MEMPHIS INTL   CLOUDY    80  66  62 SE5       29.96F
NWS MEMPHIS      N/A     77 N/A N/A MISG        N/A
JACKSON        CLOUDY    79  66  64 NW5       29.97F
DYERSBURG      CLOUDY    75  66  73 NE3       29.97F
UNION CITY     SUNNY     81  63  54 CALM      29.96F
PARIS          SUNNY     79  66  65 W5        29.98F
LEXINGTON      SUNNY     81  66  61 SW3       29.97F
$$

TNZ008-025-027-028-033-062-065-066-311900-
NORTH MIDDLE TENNESSEE

CITY           SKY/WX    TMP DP  RH WIND       PRES   REMARKS
NASHVILLE      PTSUNNY   87  59  38 VRB3      29.97F
CLARKSVILLE    MOSUNNY   85  62  46 SE5       29.96F
SMYRNA         MOSUNNY   89  59  36 CALM      29.98F
COOKEVILLE     SUNNY     84  66  54 NW3       29.99S
CROSSVILLE     SUNNY     83  58  42 VRB3      30.03F
$$

TNZ061-075-076-078-094-096-097-311900-
SOUTH MIDDLE TENNESSEE

CITY           SKY/WX    TMP DP  RH WIND       PRES   REMARKS
FAYETTEVILLE   PTSUNNY   86  61  42 W8        29.97F
TULLAHOMA      SUNNY     86  54  32 NW6       30.00S
WINCHESTER     SUNNY     88  57  35 W9        29.97F
MCMINNVILLE    SUNNY     86  63  45 N7        29.99F
COLUMBIA       SUNNY     90  63  40 VRB5      29.96F HX  90
SHELBYVILLE    MOSUNNY   90  63  40 VRB5      29.98F HX  90
$$

TNZ017-018-042-046-047-311900-
NORTHEAST TENNESSEE

CITY           SKY/WX    TMP DP  RH WIND       PRES   REMARKS
TRI CITIES     PTSUNNY   86  59  39 CALM      29.99F
$$

TNZ012-013-036-069-073-074-311900-
CENTRAL EAST TENNESSEE

CITY           SKY/WX    TMP DP  RH WIND       PRES   REMARKS
KNOXVILLE      PTSUNNY   85  64  49 NE6       29.97F
OAK RIDGE      MOSUNNY   86  61  42 VRB5      29.98F
GATLINBURG       N/A     84  61  45 VRB5      29.96F
$$

TNZ083-085-099-311900-
SOUTHEAST TENNESSEE

CITY           SKY/WX    TMP DP  RH WIND       PRES   REMARKS
CHATTANOOGA    PTSUNNY   90  56  31 NW8       29.96F
$$

SKY/WX REPORTED AS FAIR MEANS FEW OR NO CLOUDS BELOW
12 THOUSAND FEET.





USA.gov is the U.S. government's official web portal to all federal, state and local government web resources and services.